| time (UTC) | temp F | wind direction | speed MPH | gust MPH | rain 1hr in | rain 24hr in | rain mn in | humidity % | barometer mb |
| 20260506232231 | 71 | 223 | 1.0 | 6.0 | 0.00 | 0.00 | 0.00 | 37 | 1009.6 |
| 20260506231226 | 71 | 241 | 1.0 | 5.0 | 0.00 | 0.00 | 0.00 | 38 | 1009.7 |
| 20260506230726 | 71 | 229 | 2.0 | 5.0 | 0.00 | 0.00 | 0.00 | 38 | 1009.7 |
| 20260506230226 | 71 | 275 | 2.0 | 5.0 | 0.00 | 0.00 | 0.00 | 38 | 1009.7 |
| 20260506225725 | 71 | 269 | 2.0 | 5.0 | 0.00 | 0.00 | 0.00 | 38 | 1009.8 |
| 20260506225226 | 71 | 229 | 1.0 | 5.0 | 0.00 | 0.00 | 0.00 | 39 | 1009.8 |
| 20260506224726 | 70 | 184 | 1.0 | 3.0 | 0.00 | 0.00 | 0.00 | 38 | 1010.0 |
| 20260506223724 | 70 | 153 | 1.0 | 4.0 | 0.00 | 0.00 | 0.00 | 39 | 1010.1 |
| 20260506223224 | 69 | 244 | 2.0 | 6.0 | 0.00 | 0.00 | 0.00 | 39 | 1010.2 |
| 20260506222722 | 70 | 223 | 2.0 | 6.0 | 0.00 | 0.00 | 0.00 | 38 | 1010.3 |
| 20260506222221 | 70 | 254 | 2.0 | 6.0 | 0.00 | 0.00 | 0.00 | 36 | 1010.5 |
| 20260506221718 | 70 | 239 | 2.0 | 6.0 | 0.00 | 0.00 | 0.00 | 37 | 1010.5 |
| 20260506221219 | 70 | 274 | 2.0 | 6.0 | 0.00 | 0.00 | 0.00 | 37 | 1010.5 |
| 20260506220214 | 71 | 115 | 2.0 | 4.0 | 0.00 | 0.00 | 0.00 | 35 | 1010.7 |
| 20260506215712 | 70 | 229 | 2.0 | 6.0 | 0.00 | 0.00 | 0.00 | 36 | 1010.8 |
| 20260506214712 | 70 | 228 | 2.0 | 5.0 | 0.00 | 0.00 | 0.00 | 36 | 1011.0 |
| 20260506214211 | 70 | 192 | 2.0 | 7.0 | 0.00 | 0.00 | 0.00 | 33 | 1011.2 |
| 20260506213212 | 69 | 270 | 2.0 | 7.0 | 0.00 | 0.00 | 0.00 | 35 | 1011.5 |
| 20260506212713 | 68 | 209 | 3.0 | 8.0 | 0.00 | 0.00 | 0.00 | 35 | 1011.6 |
| 20260506212213 | 69 | 242 | 3.0 | 9.0 | 0.00 | 0.00 | 0.00 | 34 | 1011.7 |
| 20260506211708 | 70 | 175 | 2.0 | 9.0 | 0.00 | 0.00 | 0.00 | 34 | 1011.8 |
| 20260506205709 | 69 | 193 | 2.0 | 7.0 | 0.00 | 0.00 | 0.00 | 33 | 1012.0 |
| 20260506205209 | 69 | 244 | 2.0 | 8.0 | 0.00 | 0.00 | 0.00 | 36 | 1012.0 |
| 20260506204708 | 68 | 209 | 3.0 | 11.0 | 0.00 | 0.00 | 0.00 | 35 | 1012.2 |
| 20260506204208 | 67 | 236 | 3.0 | 11.0 | 0.00 | 0.00 | 0.00 | 35 | 1012.4 |
| 20260506203708 | 68 | 200 | 2.0 | 7.0 | 0.00 | 0.00 | 0.00 | 33 | 1012.4 |
| 20260506203204 | 68 | 202 | 2.0 | 7.0 | 0.00 | 0.00 | 0.00 | 35 | 1012.5 |
| 20260506202703 | 68 | 156 | 2.0 | 8.0 | 0.00 | 0.00 | 0.00 | 35 | 1012.6 |
| 20260506202205 | 68 | 220 | 2.0 | 8.0 | 0.00 | 0.00 | 0.00 | 35 | 1012.6 |
| 20260506201704 | 68 | 161 | 2.0 | 8.0 | 0.00 | 0.00 | 0.00 | 35 | 1012.6 |
| 20260506200704 | 67 | 325 | 2.0 | 6.0 | 0.00 | 0.00 | 0.00 | 34 | 1012.8 |
| 20260506200205 | 68 | 286 | 2.0 | 6.0 | 0.00 | 0.00 | 0.00 | 35 | 1012.8 |
| 20260506195705 | 68 | 202 | 2.0 | 6.0 | 0.00 | 0.00 | 0.00 | 34 | 1012.9 |
| 20260506195205 | 68 | 200 | 1.0 | 6.0 | 0.00 | 0.00 | 0.00 | 33 | 1013.0 |
| 20260506194704 | 67 | 171 | 1.0 | 4.0 | 0.00 | 0.00 | 0.00 | 34 | 1013.1 |
| 20260506194204 | 66 | 282 | 2.0 | 4.0 | 0.00 | 0.00 | 0.00 | 34 | 1013.1 |
| 20260506192705 | 67 | 67 | 1.0 | 5.0 | 0.00 | 0.00 | 0.00 | 32 | 1013.4 |
| 20260506190703 | 64 | 238 | 2.0 | 7.0 | 0.00 | 0.00 | 0.00 | 36 | 1013.7 |
| 20260506190201 | 65 | 223 | 2.0 | 7.0 | 0.00 | 0.00 | 0.00 | 36 | 1013.8 |
| 20260506185702 | 64 | 232 | 2.0 | 7.0 | 0.00 | 0.00 | 0.00 | 37 | 1013.8 |
| 20260506185202 | 63 | 225 | 2.0 | 7.0 | 0.00 | 0.00 | 0.00 | 36 | 1013.9 |
| 20260506184702 | 63 | 215 | 2.0 | 5.0 | 0.00 | 0.00 | 0.00 | 35 | 1014.2 |
| 20260506184201 | 64 | 161 | 1.0 | 5.0 | 0.00 | 0.00 | 0.00 | 36 | 1014.2 |
| 20260506183202 | 63 | 239 | 2.0 | 7.0 | 0.00 | 0.00 | 0.00 | 36 | 1014.5 |
| 20260506182704 | 63 | 154 | 1.0 | 6.0 | 0.00 | 0.00 | 0.00 | 37 | 1014.5 |
| 20260506182205 | 62 | 326 | 1.0 | 4.0 | 0.00 | 0.00 | 0.00 | 38 | 1014.6 |
| 20260506181703 | 61 | 196 | 1.0 | 4.0 | 0.00 | 0.00 | 0.00 | 40 | 1014.8 |
| 20260506181203 | 61 | 106 | 1.0 | 4.0 | 0.00 | 0.00 | 0.00 | 36 | 1014.9 |
| 20260506180703 | 62 | 263 | 2.0 | 4.0 | 0.00 | 0.00 | 0.00 | 38 | 1014.9 |
| 20260506180204 | 62 | 336 | 1.0 | 5.0 | 0.00 | 0.00 | 0.00 | 39 | 1014.8 |
| 20260506175703 | 60 | 284 | 2.0 | 5.0 | 0.00 | 0.00 | 0.00 | 37 | 1015.0 |
| 20260506175204 | 60 | 168 | 2.0 | 6.0 | 0.00 | 0.00 | 0.00 | 36 | 1015.0 |
| 20260506174705 | 60 | 292 | 1.0 | 6.0 | 0.00 | 0.00 | 0.00 | 37 | 1015.1 |
| 20260506174203 | 60 | 79 | 1.0 | 4.0 | 0.00 | 0.00 | 0.00 | 38 | 1015.2 |
| 20260506173703 | 59 | 213 | 1.0 | 4.0 | 0.00 | 0.00 | 0.00 | 39 | 1015.2 |
| 20260506172706 | 59 | 83 | 2.0 | 7.0 | 0.00 | 0.00 | 0.00 | 38 | 1015.2 |
| 20260506172204 | 58 | 68 | 2.0 | 7.0 | 0.00 | 0.00 | 0.00 | 41 | 1015.3 |
| 20260506171203 | 59 | 232 | 1.0 | 4.0 | 0.00 | 0.00 | 0.00 | 41 | 1015.4 |
| 20260506170201 | 58 | 223 | 1.0 | 8.0 | 0.00 | 0.00 | 0.00 | 39 | 1015.4 |
| 20260506165149 | 57 | 238 | 1.0 | 5.0 | 0.00 | 0.00 | 0.00 | 39 | 1015.5 |
| 20260506164643 | 57 | 229 | 1.0 | 3.0 | 0.00 | 0.00 | 0.00 | 39 | 1015.5 |
| 20260506164135 | 56 | 235 | 1.0 | 4.0 | 0.00 | 0.00 | 0.00 | 42 | 1015.7 |
| 20260506163634 | 55 | 241 | 1.0 | 4.0 | 0.00 | 0.00 | 0.00 | 44 | 1015.7 |
| 20260506163131 | 54 | 207 | 1.0 | 3.0 | 0.00 | 0.00 | 0.00 | 49 | 1015.7 |
| 20260506162634 | 53 | 101 | 1.0 | 3.0 | 0.00 | 0.00 | 0.00 | 50 | 1015.9 |
| 20260506162131 | 52 | 28 | 1.0 | 3.0 | 0.00 | 0.00 | 0.00 | 52 | 1015.9 |
| 20260506161131 | 50 | 83 | 2.0 | 8.0 | 0.00 | 0.00 | 0.00 | 52 | 1016.1 |
| 20260506160635 | 50 | 57 | 3.0 | 8.0 | 0.00 | 0.00 | 0.00 | 53 | 1016.2 |
| 20260506160131 | 49 | 67 | 2.0 | 4.0 | 0.00 | 0.00 | 0.00 | 52 | 1016.3 |
| 20260506155632 | 50 | 68 | 2.0 | 4.0 | 0.00 | 0.00 | 0.00 | 52 | 1016.3 |
| 20260506155133 | 49 | 67 | 2.0 | 3.0 | 0.00 | 0.00 | 0.00 | 53 | 1016.4 |
| 20260506154635 | 48 | 59 | 2.0 | 3.0 | 0.00 | 0.00 | 0.00 | 54 | 1016.3 |
| 20260506154133 | 48 | 78 | 2.0 | 4.0 | 0.00 | 0.00 | 0.00 | 54 | 1016.4 |
| 20260506153631 | 47 | 96 | 2.0 | 4.0 | 0.00 | 0.00 | 0.00 | 56 | 1016.4 |
| 20260506153134 | 47 | 28 | 1.0 | 4.0 | 0.00 | 0.00 | 0.00 | 58 | 1016.5 |
| 20260506152630 | 46 | 71 | 2.0 | 4.0 | 0.00 | 0.00 | 0.00 | 59 | 1016.4 |
| 20260506152124 | 45 | 72 | 2.0 | 4.0 | 0.00 | 0.00 | 0.00 | 62 | 1016.5 |
| 20260506151622 | 45 | 42 | 2.0 | 4.0 | 0.00 | 0.00 | 0.00 | 63 | 1016.6 |
| 20260506151121 | 44 | 334 | 1.0 | 4.0 | 0.00 | 0.00 | 0.00 | 61 | 1016.6 |
| 20260506150620 | 44 | 34 | 1.0 | 4.0 | 0.00 | 0.00 | 0.00 | 61 | 1016.6 |
| 20260506150117 | 43 | 326 | 1.0 | 3.0 | 0.00 | 0.00 | 0.00 | 64 | 1016.7 |
| 20260506145616 | 42 | 298 | 1.0 | 3.0 | 0.00 | 0.00 | 0.00 | 66 | 1016.7 |
| 20260506145114 | 42 | 302 | 0.0 | 2.0 | 0.00 | 0.00 | 0.00 | 66 | 1016.9 |
| 20260506144613 | 41 | 344 | 0.0 | 2.0 | 0.00 | 0.00 | 0.00 | 70 | 1016.8 |
| 20260506144115 | 40 | 326 | 0.0 | 2.0 | 0.00 | 0.00 | 0.00 | 69 | 1016.9 |
| 20260506143111 | 39 | 300 | 0.0 | 2.0 | 0.00 | 0.00 | 0.00 | 72 | 1016.9 |
| 20260506142611 | 39 | 309 | 0.0 | 1.0 | 0.00 | 0.00 | 0.00 | 74 | 1017.1 |
| 20260506142111 | 38 | 309 | 0.0 | 1.0 | 0.00 | 0.00 | 0.00 | 74 | 1017.1 |
| 20260506141609 | 37 | 285 | 0.0 | 1.0 | 0.00 | 0.00 | 0.00 | 78 | 1017.1 |
| 20260506140608 | 36 | 285 | 0.0 | 1.0 | 0.00 | 0.00 | 0.00 | 80 | 1017.1 |
| 20260506140109 | 35 | 284 | 0.0 | 1.0 | 0.00 | 0.00 | 0.00 | 80 | 1016.9 |
| 20260506135607 | 35 | 277 | 0.0 | 1.0 | 0.00 | 0.00 | 0.00 | 82 | 1016.9 |
| 20260506135105 | 35 | 277 | 0.0 | 2.0 | 0.00 | 0.00 | 0.00 | 82 | 1017.1 |
| 20260506134602 | 34 | 317 | 0.0 | 2.0 | 0.00 | 0.00 | 0.00 | 83 | 1016.9 |
| 20260506134101 | 34 | 322 | 0.0 | 2.0 | 0.00 | 0.00 | 0.00 | 82 | 1016.9 |
| 20260506133555 | 33 | 232 | 0.0 | 0.0 | 0.00 | 0.00 | 0.00 | 84 | 1016.9 |
| 20260506133050 | 32 | 232 | 0.0 | 0.0 | 0.00 | 0.00 | 0.00 | 85 | 1017.1 |
| 20260506132544 | 32 | 232 | 0.0 | 0.0 | 0.00 | 0.00 | 0.00 | 85 | 1017.1 |
| 20260506132038 | 32 | 232 | 0.0 | 0.0 | 0.00 | 0.00 | 0.00 | 85 | 1016.9 |
| 20260506131531 | 33 | 221 | 0.0 | 0.0 | 0.00 | 0.00 | 0.00 | 84 | 1017.1 |
| 20260506131030 | 33 | 221 | 0.0 | 0.0 | 0.00 | 0.00 | 0.00 | 83 | 1016.9 |
| 20260506130530 | 33 | 222 | 0.0 | 0.0 | 0.00 | 0.00 | 0.00 | 83 | 1016.9 |
| 20260506130029 | 33 | 222 | 0.0 | 0.0 | 0.00 | 0.00 | 0.00 | 83 | 1016.9 |
| 20260506125529 | 33 | 221 | 0.0 | 0.0 | 0.00 | 0.00 | 0.00 | 84 | 1016.9 |
| 20260506125029 | 32 | 221 | 0.0 | 1.0 | 0.00 | 0.00 | 0.00 | 85 | 1016.9 |
| 20260506124530 | 32 | 221 | 0.0 | 0.0 | 0.00 | 0.00 | 0.00 | 84 | 1016.9 |
| 20260506124030 | 33 | 217 | 0.0 | 1.0 | 0.00 | 0.00 | 0.00 | 84 | 1016.9 |
| 20260506123529 | 32 | 209 | 0.0 | 1.0 | 0.00 | 0.00 | 0.00 | 84 | 1016.9 |
| 20260506123030 | 32 | 244 | 0.0 | 1.0 | 0.00 | 0.00 | 0.00 | 84 | 1016.9 |
| 20260506122529 | 32 | 244 | 0.0 | 1.0 | 0.00 | 0.00 | 0.00 | 83 | 1016.9 |
| 20260506121530 | 33 | 245 | 0.0 | 1.0 | 0.00 | 0.00 | 0.00 | 82 | 1016.9 |
| 20260506121029 | 33 | 245 | 0.0 | 1.0 | 0.00 | 0.00 | 0.00 | 82 | 1016.9 |
| 20260506120531 | 33 | 238 | 0.0 | 1.0 | 0.00 | 0.00 | 0.00 | 81 | 1017.1 |
| 20260506120029 | 34 | 242 | 0.0 | 1.0 | 0.00 | 0.00 | 0.00 | 80 | 1017.1 |
| 20260506115032 | 34 | 319 | 0.0 | 2.0 | 0.00 | 0.00 | 0.00 | 80 | 1016.9 |
| 20260506114536 | 34 | 319 | 0.0 | 2.0 | 0.00 | 0.00 | 0.00 | 80 | 1016.9 |
| 20260506114033 | 34 | 254 | 0.0 | 1.0 | 0.00 | 0.00 | 0.00 | 79 | 1016.9 |
| 20260506113530 | 34 | 329 | 0.0 | 1.0 | 0.00 | 0.00 | 0.00 | 79 | 1016.9 |
| 20260506113030 | 34 | 9 | 0.0 | 1.0 | 0.00 | 0.00 | 0.00 | 79 | 1017.1 |
| 20260506112529 | 35 | 67 | 0.0 | 1.0 | 0.00 | 0.00 | 0.00 | 77 | 1017.1 |
| 20260506112028 | 35 | 266 | 0.0 | 1.0 | 0.00 | 0.00 | 0.00 | 77 | 1017.1 |
| 20260506111531 | 35 | 333 | 0.0 | 1.0 | 0.00 | 0.00 | 0.00 | 78 | 1016.9 |
| 20260506111030 | 35 | 328 | 0.0 | 1.0 | 0.00 | 0.00 | 0.00 | 76 | 1016.9 |
| 20260506110030 | 35 | 302 | 0.0 | 1.0 | 0.00 | 0.00 | 0.00 | 77 | 1016.9 |
| 20260506105529 | 36 | 279 | 0.0 | 1.0 | 0.00 | 0.00 | 0.00 | 77 | 1017.1 |
| 20260506105030 | 36 | 279 | 0.0 | 1.0 | 0.00 | 0.00 | 0.00 | 76 | 1016.9 |
| 20260506104033 | 36 | 255 | 0.0 | 1.0 | 0.00 | 0.00 | 0.00 | 75 | 1016.9 |
| 20260506103532 | 36 | 267 | 0.0 | 1.0 | 0.00 | 0.00 | 0.00 | 76 | 1016.8 |
| 20260506103033 | 37 | 270 | 0.0 | 1.0 | 0.00 | 0.00 | 0.00 | 74 | 1016.8 |
| 20260506102532 | 37 | 254 | 0.0 | 1.0 | 0.00 | 0.00 | 0.00 | 73 | 1016.8 |
| 20260506102034 | 37 | 346 | 0.0 | 1.0 | 0.00 | 0.00 | 0.00 | 74 | 1016.8 |
| 20260506101537 | 37 | 298 | 0.0 | 2.0 | 0.00 | 0.00 | 0.00 | 73 | 1016.9 |
| 20260506101032 | 37 | 302 | 1.0 | 3.0 | 0.00 | 0.00 | 0.00 | 74 | 1016.8 |
| 20260506100529 | 37 | 330 | 1.0 | 3.0 | 0.00 | 0.00 | 0.00 | 73 | 1016.9 |
| 20260506100029 | 37 | 44 | 1.0 | 2.0 | 0.00 | 0.00 | 0.00 | 75 | 1016.7 |
| 20260506095529 | 37 | 329 | 1.0 | 4.0 | 0.00 | 0.00 | 0.00 | 74 | 1016.9 |
| 20260506094529 | 37 | 100 | 1.0 | 2.0 | 0.00 | 0.00 | 0.00 | 74 | 1016.8 |
| 20260506094030 | 37 | 329 | 0.0 | 2.0 | 0.00 | 0.00 | 0.00 | 75 | 1016.9 |
| 20260506093529 | 37 | 32 | 0.0 | 2.0 | 0.00 | 0.00 | 0.00 | 75 | 1016.9 |
| 20260506093029 | 37 | 295 | 0.0 | 1.0 | 0.00 | 0.00 | 0.00 | 79 | 1016.9 |
| 20260506092529 | 37 | 23 | 0.0 | 1.0 | 0.00 | 0.00 | 0.00 | 79 | 1017.1 |
| 20260506091531 | 37 | 46 | 0.0 | 2.0 | 0.00 | 0.00 | 0.00 | 78 | 1016.9 |
| 20260506091029 | 37 | 48 | 0.0 | 2.0 | 0.00 | 0.00 | 0.00 | 76 | 1017.1 |
| 20260506090532 | 36 | 42 | 0.0 | 2.0 | 0.00 | 0.00 | 0.00 | 75 | 1017.1 |
| 20260506090033 | 36 | 232 | 0.0 | 2.0 | 0.00 | 0.00 | 0.00 | 75 | 1017.1 |
| 20260506085532 | 36 | 304 | 0.0 | 2.0 | 0.00 | 0.00 | 0.00 | 73 | 1017.1 |
| 20260506085023 | 36 | 223 | 0.0 | 1.0 | 0.00 | 0.00 | 0.00 | 72 | 1017.1 |
| 20260506084014 | 37 | 246 | 0.0 | 0.0 | 0.00 | 0.00 | 0.00 | 69 | 1017.1 |
| 20260506083511 | 37 | 246 | 0.0 | 1.0 | 0.00 | 0.00 | 0.00 | 70 | 1016.9 |
| 20260506083012 | 37 | 246 | 0.0 | 1.0 | 0.00 | 0.00 | 0.00 | 71 | 1017.1 |
| 20260506082510 | 37 | 241 | 0.0 | 2.0 | 0.00 | 0.00 | 0.00 | 72 | 1017.1 |
| 20260506081509 | 37 | 182 | 0.0 | 1.0 | 0.00 | 0.00 | 0.00 | 72 | 1017.2 |
| 20260506081009 | 37 | 182 | 0.0 | 2.0 | 0.00 | 0.00 | 0.00 | 72 | 1017.1 |
| 20260506080509 | 37 | 213 | 0.0 | 2.0 | 0.00 | 0.00 | 0.00 | 75 | 1017.2 |
| 20260506073503 | 37 | 253 | 1.0 | 2.0 | 0.00 | 0.00 | 0.00 | 75 | 1017.3 |
| 20260506073004 | 39 | 229 | 0.0 | 2.0 | 0.00 | 0.00 | 0.00 | 72 | 1017.2 |
| 20260506071502 | 40 | 93 | 0.0 | 1.0 | 0.00 | 0.00 | 0.00 | 72 | 1017.3 |
| 20260506071001 | 40 | 93 | 0.0 | 2.0 | 0.00 | 0.00 | 0.00 | 71 | 1017.3 |
| 20260506062431 | 42 | 165 | 0.0 | 0.0 | 0.00 | 0.00 | 0.00 | 62 | 1017.1 |
| 20260506061930 | 42 | 165 | 0.0 | 0.0 | 0.00 | 0.00 | 0.00 | 62 | 1016.9 |
| 20260506061431 | 42 | 165 | 0.0 | 0.0 | 0.00 | 0.00 | 0.00 | 65 | 1017.1 |
| 20260506060929 | 43 | 165 | 0.0 | 1.0 | 0.00 | 0.00 | 0.00 | 68 | 1017.1 |
| 20260506060430 | 43 | 165 | 0.0 | 1.0 | 0.00 | 0.00 | 0.00 | 61 | 1017.1 |
| 20260506050916 | 46 | 327 | 0.0 | 1.0 | 0.00 | 0.00 | 0.00 | 50 | 1016.9 |
| 20260506050409 | 47 | 327 | 0.0 | 1.0 | 0.00 | 0.00 | 0.00 | 50 | 1016.9 |
| 20260506044405 | 49 | 219 | 1.0 | 4.0 | 0.00 | 0.00 | 0.00 | 44 | 1016.7 |
| 20260506043901 | 49 | 218 | 1.0 | 3.0 | 0.00 | 0.00 | 0.00 | 44 | 1016.8 |
| 20260506042902 | 51 | 52 | 3.0 | 10.0 | 0.00 | 0.00 | 0.00 | 43 | 1016.6 |
| 20260506042401 | 51 | 69 | 5.0 | 12.0 | 0.00 | 0.00 | 0.00 | 44 | 1016.6 |
| 20260506041901 | 51 | 53 | 6.0 | 14.0 | 0.00 | 0.00 | 0.00 | 43 | 1016.6 |
| 20260506041402 | 52 | 70 | 6.0 | 14.0 | 0.00 | 0.00 | 0.00 | 42 | 1016.5 |
| 20260506040401 | 52 | 55 | 7.0 | 13.0 | 0.00 | 0.00 | 0.00 | 44 | 1016.4 |
| 20260506035901 | 51 | 53 | 6.0 | 9.0 | 0.00 | 0.00 | 0.00 | 41 | 1016.5 |
| 20260506035401 | 51 | 93 | 3.0 | 9.0 | 0.00 | 0.00 | 0.00 | 44 | 1016.5 |
| 20260506034905 | 51 | 74 | 1.0 | 8.0 | 0.00 | 0.00 | 0.00 | 47 | 1016.5 |
| 20260506034402 | 51 | 18 | 2.0 | 8.0 | 0.00 | 0.00 | 0.00 | 43 | 1016.4 |
| 20260506033901 | 52 | 59 | 5.0 | 13.0 | 0.00 | 0.00 | 0.00 | 43 | 1016.4 |
| 20260506033402 | 52 | 75 | 5.0 | 13.0 | 0.00 | 0.00 | 0.00 | 41 | 1016.4 |
| 20260506031847 | 52 | 300 | 10.0 | 17.0 | 0.00 | 0.00 | 0.00 | 40 | 1016.2 |
| 20260506031340 | 53 | 88 | 12.0 | 17.0 | 0.00 | 0.00 | 0.00 | 40 | 1016.2 |
| 20260506030834 | 53 | 69 | 10.0 | 17.0 | 0.00 | 0.00 | 0.00 | 42 | 1016.2 |
| 20260506030334 | 53 | 73 | 10.0 | 18.0 | 0.00 | 0.00 | 0.00 | 42 | 1016.2 |
| 20260506025834 | 53 | 62 | 11.0 | 18.0 | 0.00 | 0.00 | 0.00 | 38 | 1016.1 |
| 20260506025334 | 53 | 81 | 12.0 | 20.0 | 0.00 | 0.00 | 0.00 | 40 | 1016.0 |
| 20260506024834 | 53 | 83 | 12.0 | 20.0 | 0.00 | 0.00 | 0.00 | 38 | 1016.0 |
| 20260506024334 | 53 | 74 | 11.0 | 15.0 | 0.00 | 0.00 | 0.00 | 38 | 1016.0 |
| 20260506023834 | 53 | 69 | 9.0 | 14.0 | 0.00 | 0.00 | 0.00 | 37 | 1016.0 |
| 20260506023334 | 53 | 57 | 9.0 | 14.0 | 0.00 | 0.00 | 0.00 | 41 | 1016.0 |
| 20260506022835 | 53 | 97 | 10.0 | 18.0 | 0.00 | 0.00 | 0.00 | 37 | 1016.0 |
| 20260506022333 | 53 | 92 | 10.0 | 18.0 | 0.00 | 0.00 | 0.00 | 37 | 1016.0 |
| 20260506021835 | 53 | 73 | 10.0 | 18.0 | 0.00 | 0.00 | 0.00 | 38 | 1015.7 |
| 20260506021334 | 53 | 28 | 10.0 | 20.0 | 0.00 | 0.00 | 0.00 | 38 | 1015.9 |
| 20260506020834 | 53 | 96 | 11.0 | 20.0 | 0.00 | 0.00 | 0.00 | 38 | 1015.9 |
| 20260506020334 | 53 | 14 | 11.0 | 17.0 | 0.00 | 0.00 | 0.00 | 37 | 1015.7 |
| 20260506015834 | 54 | 69 | 12.0 | 20.0 | 0.00 | 0.00 | 0.00 | 38 | 1015.7 |
| 20260506015337 | 54 | 91 | 11.0 | 20.0 | 0.00 | 0.00 | 0.00 | 38 | 1015.6 |
| 20260506014836 | 54 | 74 | 9.0 | 17.0 | 0.00 | 0.00 | 0.00 | 38 | 1015.6 |
| 20260506014336 | 54 | 59 | 10.0 | 16.0 | 0.00 | 0.00 | 0.00 | 39 | 1015.6 |
| 20260506013835 | 54 | 76 | 10.0 | 16.0 | 0.00 | 0.00 | 0.00 | 38 | 1015.5 |
| 20260506013335 | 54 | 84 | 11.0 | 19.0 | 0.00 | 0.00 | 0.00 | 38 | 1015.5 |
| 20260506012834 | 54 | 336 | 12.0 | 20.0 | 0.00 | 0.00 | 0.00 | 37 | 1015.6 |
| 20260506011833 | 54 | 101 | 12.0 | 20.0 | 0.00 | 0.00 | 0.00 | 37 | 1015.6 |
| 20260506011334 | 54 | 86 | 13.0 | 21.0 | 0.00 | 0.00 | 0.00 | 38 | 1015.6 |
| 20260506010834 | 54 | 88 | 14.0 | 21.0 | 0.00 | 0.00 | 0.00 | 38 | 1015.6 |
| 20260506010334 | 54 | 67 | 15.0 | 23.0 | 0.00 | 0.00 | 0.00 | 36 | 1015.6 |
| 20260506005834 | 54 | 17 | 16.0 | 24.0 | 0.00 | 0.00 | 0.00 | 36 | 1015.6 |
| 20260506005335 | 54 | 276 | 17.0 | 26.0 | 0.00 | 0.00 | 0.00 | 37 | 1015.9 |
| 20260506004834 | 54 | 336 | 17.0 | 26.0 | 0.00 | 0.00 | 0.00 | 36 | 1015.7 |
| 20260506004335 | 54 | 79 | 16.0 | 23.0 | 0.00 | 0.00 | 0.00 | 35 | 1015.6 |
| 20260506003833 | 54 | 80 | 15.0 | 24.0 | 0.00 | 0.00 | 0.00 | 36 | 1015.7 |
| 20260506002335 | 54 | 86 | 14.0 | 24.0 | 0.00 | 0.00 | 0.00 | 35 | 1015.9 |
| 20260506001833 | 54 | 33 | 15.0 | 23.0 | 0.00 | 0.00 | 0.00 | 39 | 1015.7 |
| 20260506001334 | 54 | 91 | 16.0 | 24.0 | 0.00 | 0.00 | 0.00 | 34 | 1015.9 |
| 20260506000833 | 54 | 79 | 16.0 | 24.0 | 0.00 | 0.00 | 0.00 | 35 | 1015.4 |
| 20260506000335 | 54 | 94 | 15.0 | 22.0 | 0.00 | 0.00 | 0.00 | 38 | 1015.7 |
| 20260505235336 | 55 | 71 | 14.0 | 23.0 | 0.00 | 0.00 | 0.00 | 36 | 1015.7 |
| 20260505234838 | 54 | 74 | 15.0 | 24.0 | 0.00 | 0.00 | 0.00 | 36 | 1015.6 |
| 20260505234332 | 54 | 66 | 17.0 | 24.0 | 0.00 | 0.00 | 0.00 | 38 | 1015.5 |
| 20260505233831 | 54 | 81 | 19.0 | 33.0 | 0.00 | 0.00 | 0.00 | 36 | 1016.0 |
| 20260505233332 | 54 | 49 | 19.0 | 33.0 | 0.00 | 0.00 | 0.00 | 36 | 1015.9 |
| 20260505232830 | 55 | 28 | 16.0 | 28.0 | 0.00 | 0.00 | 0.00 | 35 | 1016.0 |